Location: Brno
(49.2000°N, 16.6330°E)
Time: 04:18:50
(UTC+01:00)

ISS - Pass Details

Date: 07 December 2021
Orbit: 413 x 422 km, 51.6° (Epoch: 22 January)

Event Time Altitude Azimuth Distance (km) Brightness Sun altitude
Rises 17:05:52 0° 289° (WNW) 2,386 0.9 -10.9°
Reaches altitude 10° 17:08:05 10° 281° (W) 1,516 0.0 -11.2°
Maximum altitude 17:11:14 36° 213° (SSW) 687 -2.2 -11.7°
Drops below altitude 10° 17:14:22 10° 145° (SE) 1,502 -1.1 -12.2°
Enters shadow 17:16:46 -1° 136° (SE) 2,450 -0.1 -12.6°
